Погода в Бырдалыке

Погода в Бырдалыке : погода сейчас, прогноз погоды и архив. Всё, что Вы хотите узнать о погоде в Бырдалыке!

Хотите узнать прогноз погоды в Бырдалыке? Тогда Вам сюда: Погода в Бырдалыке

Поиск расширенной информации на нашем сайте:

Другие новости

Новости СМИ2

Главная страница сайта

Новости сайта

03.07.2017

Напоминаем, что на нашем специализированном сайте Метеоцентр.Азия вы можете получить высокодетализированные автоматические прогнозы погоды по пунктам России, СНГ и мира в авиационном формате (включающие направление и скорость ветра, видимость, явления погоды, количество и форму облачности, нижнюю и верхнюю границу облачности).


Погода в Бырдалыке - сегодня

Время (UTC), дата Ветер
(°,м/с) 
Видим.   Явления Облачность Т
(°С)
Тd
(°С)
f(%) Тe
(°С)
Pmin
(гПа)
dP
(гПа)
Po
(мм)
O2
(г/м3)
Тmin Tmax R s Состояние
почвы
18 14.08.18 360 (С) 10 км    ясно 
+30 +3 18 +30  1006  0.5  737  267    +37.3       
21 14.08.18 340 (С) 10 км    ясно 
+22.8 +6.1 34 +23  1006.2  -0.4  736  273           
00 15.08.18 340 (С) 10 км    ясно 
+22 +8.9 43 +22  1006.7  0.4  737  273           
03 15.08.18 //0 (С) //  н/о    н/о 
                 
06 15.08.18 320 (СЗ) 10 км    ясно 
+35.4 +6.5 17 +35  1006.9  0.1  738  262  +21.7         
09 15.08.18 340 (С) 10 км    ясно 
+38.4 +6.7 14 +38  1006  -0.7  737  259           
12 15.08.18 360 (С) 10 км    ясно 
+37.8 +3.8 12 +38  1005  -1  736  260           
15 15.08.18 360 (С) 10 км    ясно 
+35 +3.5 14 +35  1005.7  0.4  737  263    +38.6       
18 15.08.18 360 (С) 10 км    ясно 
+31.3 +4.8 19 +31  1006.4  0.4  737  266    +38.6       
21 15.08.18 360 (С) 10 км    ясно 
+27.5 +4.6 23 +28  1006.3  -0.3  737  269           
00 16.08.18 360 (С) 10 км    ясно 
+24.3 +4.8 28 +24  1007.4  0.8  737  272           
03 16.08.18 360 (С) 10 км    ясно 
+27 +6.8 28 +27  1007.8  0.6  738  269           
06 16.08.18 360 (С) 10 км    ясно 
+36 +5.5 15 +36  1007.6  0.5  738  262  +24         
09 16.08.18 360 (С) 10 км    ясно 
+38.6 +7.7 15 +39  1006.4  -1  737  259           
12 16.08.18 360 (С) 10 км    ясно 
+38.4 +8.6 16 +38  1005.5  -0.9  737  259           
15 16.08.18 360 (С) 10 км    ясно 
+35.6 +7 17 +36  1006.3  0.6  737  262    +38.8       
18 16.08.18 360 (С) 10 км    ясно 
+31.8 +8.2 23 +32  1007.3  0.7  738  265    +38.8       
21 16.08.18 360 (С) 10 км    ясно 
+26 +10 37 +27  1007.4  -0.4  737  270           
00 17.08.18 340 (С) 10 км    ясно 
+22.2 +8.4 41 +22  1007.5  -0.2  737  273           
03 17.08.18 360 (С) 10 км    ясно 
+25.4 +10.2 38 +27  1007.8  0.6  738  270           
06 17.08.18 360 (С) 10 км    ясно 
+33.6 +8.6 21 +34  1007.2  0.1  738  263  +22         
09 17.08.18 360 (С) 10 км    ясно 
+36.6 +7.1 16 +37  1005.5  -1.5  737  261           
12 17.08.18 340 (С) 10 км    ясно 
+35.4 +4.5 15 +35  1005  -0.7  736  262           
15 17.08.18 340 (С) 10 км    ясно 
+32.2 -0.7 12 +32  1005.4  0.2  736  265    +36.8       
18 17.08.18 340 (С) 10 км    ясно 
+27 +2.3 20 +27  1005.5  -0.3  736  270    +38.6       
Время (UTC), дата Ветер
(°,м/с) 
Видим.   Явления Облачность Т
(°С)
Тd
(°С)
f(%) Тe
(°С)
Pmin
(гПа)
dP
(гПа)
Po
(мм)
O2
(г/м3)
Тmin Tmax R s Состояние
почвы

Для получения пояснительной информации подведите курсор к названию столбца.

ПОГОДА в Бырдалыке - архив

Всё, что Вы хотите узнать о погоде в Бырдалыке - удобно и подробно!

Выберите нужную дату (начиная с 1 января 2015* года) и нажмите кнопку "Найти".
Будут отображены архивные сводки погоды по пункту Бырдалык, начиная с указанной даты.


Отображать данные в формате CSV (для использования в таблицах Excel)


Внимание! Наш архив погоды предназначен исключительно для личного некоммерческого использования в познавательных целях. Если Вам необходимы официальные справки о состоянии погоды (для производственных, юридических, коммерческих и т.п. целей), обращайтесь в органы Росгидромета.

*Примечание: данная дата относится к архиву по метеостанциям СССР (Россия, СНГ, Балтия).
Архив по метеостанциям Зарубежной Европы и Азии (кроме Китая) хранится 10 дней, по другим регионам земного шара (Китай, Африка, Америка, Австралия, Океания) - 1 день.

Бырдалык - район местоположения метеостанции


Название, широта, долгота, высота метеостанции:
Бырдалык 38.5°ш. 64.4°д. 212 м над ур. моря [Туркменистан]

Дополнительная информация

В oтличие oт бoльшинства пoгoдных сайтoв мы публикуем пoдрoбную метеoинфoрмацию в детальнoм прoфессиoнальнoм фoрмате.

Характеристики температуры и влажнoсти вoздуха измеряются на высoте 2 м в тени вдали oт зданий и деревьев.
Скoрoсть ветра измеряется на высoте 10 м (на урoвне рoста челoвека скoрoсть ветра ниже в 1.5-2 раза). Если метеoстанция нахoдится в гoрoде или в лесу, тo скoрoсть ветра занижена на 2-4 м/с пo сравнению с oткрытым местoм. Скoрoсть ветра над акватoриями крупных рек и oзёр, а также на вершинах хoлмoв на 2-5 м/с выше, чем в oбычных услoвиях.
Атмoсфернoе давление в разных тoчках местнoсти мoжет значительнo oтличаться oт давления на метеoстанции, в зависимoсти oт услoвий рельефа (при пoдъёме на 10 м давление пoнижается примернo на 1 мм рт.ст.).